GW2953 Weather Reports


Display with metric or nautical units.
time (UTC)temp
F
wind
direction
speed
MPH
gust
MPH
rain 1hr
in
rain 24hr
in
rain mn
in
humidity
%
barometer
mb
20260504180916 57 199 5.0 9.0 0.00 0.00 0.00 87 1013.3
20260504180414 56 232 4.0 11.0 0.00 0.00 0.00 87 1013.3
20260504175912 57 199 9.0 10.0 0.00 0.00 0.00 87 1013.2
20260504175409 56 177 3.0 6.0 0.00 0.00 0.00 87 1013.2
20260504174907 57 195 5.0 7.0 0.00 0.00 0.00 87 1013.1
20260504174404 56 198 3.0 10.0 0.00 0.00 0.00 88 1013.1
20260504173901 56 266 6.0 11.0 0.00 0.00 0.00 87 1013.2
20260504173357 57 194 4.0 8.0 0.00 0.00 0.00 87 1013.3
20260504172855 57 215 3.0 12.0 0.00 0.00 0.00 87 1013.0
20260504172351 57 210 5.0 10.0 0.00 0.00 0.00 87 1013.1
20260504171847 57 178 6.0 8.0 0.00 0.00 0.00 87 1013.4
20260504171345 56 162 4.0 8.0 0.00 0.00 0.00 88 1013.4
20260504170842 56 168 2.0 7.0 0.00 0.00 0.00 88 1013.2
20260504170338 56 336 1.0 6.0 0.00 0.00 0.00 88 1013.3
20260504160256 55 102 1.0 3.0 0.00 0.00 0.00 94 1013.1
20260504150722 53 41 1.0 2.0 0.00 0.00 0.00 96 1013.3
20260504150219 53 84 2.0 2.0 0.00 0.00 0.00 97 1013.3
20260504141148 53 298 1.0 4.0 0.00 0.00 0.00 96 1012.9
20260504140645 53 302 1.0 2.0 0.00 0.00 0.00 96 1013.0
20260504140140 53 55 0.0 2.0 0.00 0.00 0.00 95 1012.6
20260504130609 53 275 4.0 5.0 0.00 0.00 0.00 95 1012.2
20260504130105 53 275 2.0 5.0 0.00 0.00 0.00 95 1012.1
20260504110451 54 282 3.0 3.0 0.00 0.00 0.00 97 1012.0
20260504100413 53 317 2.0 2.0 0.00 0.00 0.00 99 1012.3
20260504081806 53 117 0.0 1.0 0.00 0.00 0.00 98 1012.5
20260504081303 53 44 0.0 2.0 0.00 0.00 0.00 98 1012.8
20260504080759 53 209 0.0 3.0 0.00 0.00 0.00 98 1012.9
20260504080255 53 104 2.0 3.0 0.00 0.00 0.00 98 1012.8
20260504070223 54 6 0.0 4.0 0.00 0.00 0.00 98 1011.9
20260504060144 54 71 3.0 4.0 0.05 0.17 0.17 97 1011.8
20260504050612 55 255 11.0 11.0 0.00 0.13 0.13 95 1012.4
20260504050109 55 269 4.0 9.0 0.00 0.13 0.13 95 1012.8
20260504045606 55 264 5.0 9.0 0.00 0.13 0.13 94 1012.4
20260504045100 55 328 1.0 3.0 0.00 0.13 0.13 93 1012.4
20260504044559 55 301 1.0 4.0 0.00 0.13 0.13 93 1012.0
20260504044055 55 329 1.0 5.0 0.00 0.13 0.13 93 1011.6
20260504043553 55 104 5.0 9.0 0.02 0.13 0.13 92 1011.1
20260504043049 55 279 5.0 12.0 0.05 0.13 0.13 93 1011.0
20260504042547 55 327 4.0 10.0 0.28 0.13 0.13 94 1012.0
20260504042043 55 97 8.0 11.0 0.47 0.12 0.12 93 1012.6
20260504041539 56 231 2.0 13.0 0.35 0.07 0.07 91 1012.1
20260504041036 56 265 10.0 17.0 0.19 0.04 0.04 90 1012.4
20260504040533 57 274 8.0 11.0 0.07 0.01 0.01 88 1013.0
20260504040030 57 336 5.0 7.0 0.02 0.00 0.00 87 1012.6
20260504035527 57 294 4.0 6.0 0.00 0.00 0.00 85 1012.4
20260504035023 57 288 1.0 1.0 0.00 0.00 0.00 85 1012.5
20260504034521 57 47 3.0 6.0 0.00 0.00 0.00 83 1012.2
20260504034017 58 89 0.0 2.0 0.00 0.00 0.00 83 1011.9
20260504033515 58 93 1.0 4.0 0.00 0.00 0.00 81 1011.7
20260504033013 58 131 4.0 8.0 0.00 0.00 0.00 81 1011.8
20260504032509 59 165 1.0 4.0 0.00 0.00 0.00 80 1011.9
20260504032006 58 148 1.0 5.0 0.00 0.00 0.00 81 1012.3
20260504031503 58 28 3.0 9.0 0.00 0.00 0.00 81 1012.6
20260504030959 59 72 4.0 5.0 0.00 0.00 0.00 82 1012.5
20260504030457 59 172 3.0 6.0 0.00 0.00 0.00 80 1012.1
20260504025952 59 235 3.0 3.0 0.00 0.00 0.00 81 1011.9
20260504025450 59 301 3.0 3.0 0.00 0.00 0.00 79 1011.9
20260504024946 59 269 0.0 4.0 0.00 0.00 0.00 79 1011.6
20260504024443 59 262 4.0 6.0 0.00 0.00 0.00 79 1011.3
20260504023940 59 156 2.0 7.0 0.00 0.00 0.00 78 1011.6
20260504023437 59 105 3.0 4.0 0.00 0.00 0.00 78 1011.5
20260504022932 60 97 2.0 3.0 0.00 0.00 0.00 79 1011.5
20260504022429 60 181 0.0 2.0 0.00 0.00 0.00 78 1011.6
20260504021926 60 275 3.0 4.0 0.00 0.00 0.00 76 1011.3
20260504021423 60 250 2.0 5.0 0.00 0.00 0.00 75 1011.2
20260504020920 60 272 2.0 8.0 0.00 0.00 0.00 75 1011.2
20260504020417 60 328 3.0 8.0 0.00 0.00 0.00 77 1011.4
20260504015914 60 261 4.0 9.0 0.00 0.00 0.00 77 1011.6
20260504015409 60 297 5.0 6.0 0.00 0.00 0.00 77 1011.5
20260504014906 60 210 10.0 11.0 0.00 0.00 0.00 76 1011.6
20260504014402 60 229 6.0 11.0 0.00 0.00 0.00 75 1011.7
20260504013859 59 128 10.0 18.0 0.00 0.00 0.00 77 1011.6
20260504013357 59 260 4.0 5.0 0.00 0.00 0.00 79 1011.9
20260504012853 59 188 13.0 13.0 0.00 0.00 0.00 80 1011.7
20260504012351 59 212 3.0 24.0 0.00 0.00 0.00 80 1011.6
20260504011848 60 198 6.0 10.0 0.00 0.00 0.00 79 1011.7
20260504011345 60 212 5.0 9.0 0.00 0.00 0.00 79 1011.9
20260504010841 61 113 10.0 15.0 0.00 0.00 0.00 78 1011.5
20260504010337 62 161 6.0 13.0 0.00 0.00 0.00 78 1011.6
20260504005833 63 209 2.0 13.0 0.00 0.00 0.00 77 1011.3
20260504005330 63 200 5.0 18.0 0.00 0.00 0.00 75 1011.1
20260504004828 64 219 9.0 16.0 0.00 0.00 0.00 73 1011.0
20260504004325 65 293 5.0 13.0 0.00 0.00 0.00 71 1010.4
20260504003821 65 180 5.0 18.0 0.00 0.00 0.00 71 1010.2
20260504003319 65 168 16.0 18.0 0.00 0.00 0.00 70 1010.2
20260504002815 65 223 11.0 20.0 0.00 0.00 0.00 71 1010.1
20260504002312 66 188 7.0 15.0 0.00 0.00 0.00 72 1009.7
20260504001810 67 216 13.0 18.0 0.00 0.00 0.00 72 1009.4
20260504001307 67 203 3.0 7.0 0.00 0.00 0.00 72 1009.1
20260504000804 67 198 2.0 10.0 0.00 0.00 0.00 72 1009.1
20260504000301 67 255 18.0 18.0 0.00 0.00 0.00 72 1009.1
20260503235758 67 177 7.0 13.0 0.00 0.00 0.00 72 1008.9
20260503235256 68 182 8.0 13.0 0.00 0.00 0.00 71 1009.0
20260503234753 67 184 4.0 13.0 0.00 0.00 0.00 72 1009.0
20260503234251 67 166 9.0 12.0 0.00 0.00 0.00 73 1008.8
20260503233748 68 176 4.0 12.0 0.00 0.00 0.00 72 1008.6
20260503233244 68 174 3.0 6.0 0.00 0.00 0.00 73 1008.9
20260503232741 67 190 2.0 6.0 0.00 0.00 0.00 75 1009.0
20260503232238 66 199 5.0 7.0 0.00 0.00 0.00 74 1008.8
20260503231736 66 203 5.0 10.0 0.00 0.00 0.00 75 1008.9
20260503231233 68 152 2.0 4.0 0.00 0.00 0.00 75 1008.9
20260503230728 66 250 3.0 6.0 0.00 0.00 0.00 74 1008.9
20260503230226 66 212 2.0 3.0 0.00 0.00 0.00 75 1008.8
20260503225723 65 274 3.0 7.0 0.00 0.00 0.00 76 1008.8
20260503225223 65 272 3.0 4.0 0.00 0.00 0.00 75 1009.0
20260503224721 65 7 2.0 5.0 0.00 0.00 0.00 76 1009.0
20260503224218 65 263 4.0 5.0 0.00 0.00 0.00 75 1009.1
20260503223716 65 129 0.0 4.0 0.00 0.00 0.00 74 1009.3
20260503223213 65 84 3.0 6.0 0.00 0.00 0.00 74 1009.3
20260503222710 66 135 0.0 3.0 0.00 0.00 0.00 74 1009.3
20260503222208 65 28 0.0 4.0 0.00 0.00 0.00 74 1009.6
20260503221706 64 179 7.0 10.0 0.00 0.00 0.00 75 1009.7
20260503221203 65 181 4.0 6.0 0.00 0.00 0.00 75 1009.9
20260503220659 65 191 7.0 9.0 0.00 0.00 0.00 75 1010.1
20260503220156 65 305 7.0 11.0 0.00 0.00 0.00 75 1010.3
20260503215653 65 178 10.0 18.0 0.00 0.00 0.00 74 1010.4
20260503215149 65 158 6.0 11.0 0.00 0.00 0.00 76 1010.5
20260503214648 65 241 7.0 16.0 0.00 0.00 0.00 75 1010.5
20260503214143 65 191 14.0 16.0 0.00 0.00 0.00 75 1010.5
20260503213638 65 267 11.0 21.0 0.00 0.00 0.00 75 1010.6
20260503213134 65 212 8.0 17.0 0.00 0.00 0.00 74 1010.5
20260503212631 66 189 6.0 17.0 0.00 0.00 0.00 75 1010.2
20260503212129 66 241 4.0 12.0 0.00 0.00 0.00 74 1010.0
20260503211626 66 174 4.0 19.0 0.00 0.00 0.00 74 1010.1
20260503211121 66 178 5.0 19.0 0.00 0.00 0.00 74 1010.1
20260503210618 66 194 11.0 15.0 0.00 0.00 0.00 74 1010.0
20260503210115 65 286 13.0 17.0 0.00 0.00 0.00 75 1009.8
20260503205611 66 191 5.0 13.0 0.00 0.00 0.00 74 1009.9
20260503205107 65 274 11.0 15.0 0.00 0.00 0.00 75 1009.8
20260503204604 64 226 8.0 24.0 0.00 0.00 0.00 76 1009.9
20260503204101 64 224 9.0 21.0 0.00 0.00 0.00 77 1010.0
20260503203558 64 209 12.0 19.0 0.00 0.00 0.00 76 1009.8
20260503203055 65 153 12.0 16.0 0.00 0.00 0.00 76 1010.0
20260503202553 64 206 11.0 23.0 0.00 0.00 0.00 76 1009.9
20260503202051 65 212 12.0 24.0 0.00 0.00 0.00 75 1009.9
20260503201549 65 202 9.0 21.0 0.00 0.00 0.00 74 1009.9
20260503201046 65 222 14.0 22.0 0.00 0.00 0.00 74 1009.8
20260503200542 66 246 6.0 20.0 0.00 0.00 0.00 72 1009.5
20260503200038 66 189 16.0 23.0 0.00 0.00 0.00 73 1009.6
20260503195535 66 200 12.0 22.0 0.00 0.00 0.00 74 1009.8
20260503195027 66 227 9.0 19.0 0.00 0.00 0.00 72 1009.8
20260503194525 66 206 11.0 19.0 0.00 0.00 0.00 73 1009.6
20260503194024 66 195 15.0 20.0 0.00 0.00 0.00 72 1009.7
20260503193521 66 207 14.0 20.0 0.00 0.00 0.00 71 1009.5
20260503193017 67 203 13.0 13.0 0.00 0.00 0.00 69 1009.6
20260503192513 67 218 16.0 22.0 0.00 0.00 0.00 67 1009.3
20260503192008 68 232 11.0 18.0 0.00 0.00 0.00 65 1009.4
20260503191506 69 199 7.0 17.0 0.00 0.00 0.00 65 1009.4
20260503191002 70 194 9.0 12.0 0.00 0.00 0.00 62 1009.2
20260503190459 72 124 2.0 4.0 0.00 0.00 0.00 63 1009.4
20260503185956 71 219 6.0 8.0 0.00 0.00 0.00 60 1009.4
20260503185452 72 179 3.0 8.0 0.00 0.00 0.00 56 1009.5
20260503184952 73 153 2.0 5.0 0.00 0.00 0.00 57 1009.4
20260503184449 73 114 3.0 6.0 0.00 0.00 0.00 61 1009.4
20260503183945 73 108 3.0 4.0 0.00 0.00 0.00 60 1009.4
20260503183442 72 102 2.0 3.0 0.00 0.00 0.00 61 1009.4
20260503182939 72 179 2.0 4.0 0.00 0.00 0.00 64 1009.4
20260503182437 72 164 2.0 3.0 0.00 0.00 0.00 62 1009.3
20260503181935 72 104 2.0 3.0 0.00 0.00 0.00 61 1009.4
20260503181432 70 217 0.0 3.0 0.00 0.00 0.00 62 1009.4